Regional Weather Roundup
Issued by NWS

Home | Current Version | Previous Version | Graphics & Text | Print | Product List | Glossary Off
Versions: 1 2 3 4 5 6 7 8 9 10 11 12 13 14 15 16 17 18 19 20 21 22 23 24 25 26 27 28 29 30 31 32 33 34 35 36 37 38 39 40 41 42 43 44 45 46 47 48 49 50

000
ASUS43 KMKX 201721
RWRWI

WISCONSIN REGIONAL WEATHER ROUNDUP
NATIONAL WEATHER SERVICE MILWAUKEE/SULLIVAN WI
1200 PM CDT SUN APR 20 2014

NOTE: "FAIR" INDICATES FEW OR NO CLOUDS BELOW 12,000 FEET WITH NO
SIGNIFICANT WEATHER AND/OR OBSTRUCTIONS TO VISIBILITY.

WIZ001-002-006>008-014>016-023>028-201800-
NORTHWEST WISCONSIN

CITY           SKY/WX    TMP DP  RH WIND       PRES   REMARKS
SUPERIOR ARPT  SUNNY     56  39  52 CALM      30.05R
ASHLAND        SUNNY     56  41  57 N3        30.05S
HAYWARD        SUNNY     63  40  42 VRB5      30.04S
SIREN          SUNNY     61  38  43 S3        30.05S
RICE LAKE      SUNNY     65  43  44 CALM      30.05F
LADYSMITH      SUNNY     66  49  55 SW5       30.06S
EAU CLAIRE     CLOUDY    62  50  64 S10       30.05S
MENOMONIE      MOSUNNY   65  51  60 SE12      30.05S
NEW RICHMOND   SUNNY     65  47  51 CALM      30.04S
OSCEOLA        SUNNY     67  42  40 CALM      30.06S
$$

WIZ003>005-009-010-017-018-201800-
NORTH CENTRAL WISCONSIN

CITY           SKY/WX    TMP DP  RH WIND       PRES   REMARKS
WOODRUFF       SUNNY     63  46  52 S6        30.04F
RHINELANDER    NOT AVBL
EAGLE RIVER    SUNNY     60  42  51 SW6       30.04F
LAND O LAKES   SUNNY     62  40  44 SW5       30.04F
PHILLIPS       SUNNY     64  46  52 SW5       30.04S
TOMAHAWK       CLOUDY    57  47  70 CALM      30.06F
MEDFORD        CLOUDY    59  52  78 S12       30.07S
MERRILL        PTSUNNY   59  50  71 CALM      30.07F
$$

WIZ029-030-035-036-043>047-201800-
CENTRAL WISCONSIN

CITY           SKY/WX    TMP DP  RH WIND       PRES   REMARKS
WAUSAU         PTSUNNY   58  50  75 SW14      30.07S
MOSINEE        PTSUNNY   55  52  88 S10       30.10R
MARSHFIELD     CLOUDY    59  50  72 SW12      30.08S
STEVENS POINT  RAIN      51  47  86 S8        30.11R
WAUPACA        RAIN      54  46  76 S3        30.13S
WAUTOMA        CLOUDY    59  41  51 S3        30.12S
WISC RAPIDS    LGT RAIN  52  49  89 S7        30.11S
CAMP DOUGLAS   LGT RAIN  55  54  94 SE6       30.10S
$$

WIZ011>013-019>022-031-037>040-048>050-201800-
NORTHEAST WISCONSIN

CITY           SKY/WX    TMP DP  RH WIND       PRES   REMARKS
ANTIGO         PTSUNNY   56  49  80 SW8       30.08F
STURGEON BAY   CLOUDY    39  36  87 S7        30.13F WCI  34
GREEN BAY      LGT RAIN  51  46  83 S7        30.13F
MANITOWOC      CLOUDY    45  36  70 SE5       30.15F
APPLETON       CLOUDY    52  43  71 CALM      30.13F
CLINTONVILLE   LGT RAIN  50  46  87 S7        30.11S
OSHKOSH        CLOUDY    59  41  51 S9        30.12F
$$

WIZ032>034-041-042-053>061-201800-
SOUTHWEST WISCONSIN

CITY           SKY/WX    TMP DP  RH WIND       PRES   REMARKS
LA CROSSE      LGT RAIN  55  51  86 S6        30.09S
SPARTA         CLOUDY    55  51  84 S3        30.10F
VIROQUA        CLOUDY    54  50  86 S6        30.11R
BOSCOBEL       CLOUDY    67  48  50 SW7       30.11S
PRAIRIE DU CHI CLOUDY    62  47  59 CALM      30.11S
PLATTEVILLE    FAIR      72  43  35 S16       30.12S
$$

WIZ056-057-062-063-064-067-068-201800-
SOUTH CENTRAL WISCONSIN

CITY           SKY/WX    TMP DP  RH WIND       PRES   REMARKS
BARABOO/DELLS  CLOUDY    62  40  44 SW8       30.12S
LONE ROCK      CLOUDY    67  43  41 SW6       30.11F
WATERTOWN      MOSUNNY   68  42  38 S10       30.12F
MADISON        MOSUNNY   68  41  37 S9        30.12S
MIDDLETON      PTSUNNY   70  38  30 W9        30.13R
MONROE         CLOUDY    73  43  34 S16       30.12F
JANESVILLE     PTSUNNY   72  37  28 SW12G17   30.13F
$$

WIZ051-052-058>065-066-070>072-201800-
SOUTHEAST WISCONSIN

CITY           SKY/WX    TMP DP  RH WIND       PRES   REMARKS
MILWAUKEE      PTSUNNY   70  38  31 S15       30.15F
WAUKESHA       MOSUNNY   66  37  34 SW9G16    30.16F
MILWAUKEE/TIMM SUNNY     64  34  32 SW8       30.16F
RACINE         MOSUNNY   59  36  42 SE10      30.18F
BURLINGTON     MOSUNNY   71  39  31 SW17      30.15F
KENOSHA        MOSUNNY   71  40  32 SW12      30.15F
FOND DU LAC    PTSUNNY   64  41  42 SW9       30.12S
SHEBOYGAN      CLOUDY    54  41  61 SE9       30.14F
WEST BEND      PTSUNNY   68  36  30 S13       30.13F
JUNEAU         CLOUDY    65  34  31 S14       30.14S
$$

LSZ147-162-201800-
LAKE SUPERIOR

STATION/POSITION TIME  TEMP    WIND        PRES    WAVE
                       AIR SEA DIR/SP/G            HT/PER
                 (UTC) (F)     (DEG/KT/KT) (MB)    (FT/S)
DEVILS ISLAND    1700   40     250/  8/ 10 1018.2F
PORT WING        1600   40      40/  3/  4 1017.9R
SAXON HARBOR     1600             CALM     1017.6S
$$

LMZ867-665-643>646-201800-
LAKE MICHIGAN

STATION/POSITION TIME  TEMP    WIND        PRES    WAVE
                       AIR SEA DIR/SP/G            HT/PER
                 (UTC) (F)     (DEG/KT/KT) (MB)    (FT/S)
NORTHPORT PIER   1600   38     170/  8/ 18 1020.7S
SISTER BAY       1624   37     170/ 20/ 26   N/A
KEWAUNEE LAKESHO 1700   39     180/ 11/ 13 1021.5F
SHEBOYGAN LAKESH 1700   40     160/ 16/ 18 1021.3F
PORT WASHINGTON  1600   43     190/  6/ 10 1022.0
MILWAUKEE LAKESH 1700   43     150/  3/  8   N/A
KENOSHA   LAKESH 1700   44     170/ 11/ 14   N/A
$$

TC  - TEMPERATURE IN CELSIUS
VSB - VISIBILITY IN STATUTE MILES
WCI - WIND CHILL INDEX
HX  - HEAT INDEX




USA.gov is the U.S. government's official web portal to all federal, state and local government web resources and services.